Weather reports worldwide

Advertisment
Phoenix, az, United States of America (2072126): temperature & dewpoint: 10.07.2019 02:00:00 - 16.07.2019 02:00:00 (MST)Phoenix, az, United States of America (2072126): wind speed & gusts: 10.07.2019 02:00:00 - 16.07.2019 02:00:00 (MST)Phoenix, az, United States of America (2072126): wind direction: 10.07.2019 02:00:00 - 16.07.2019 02:00:00 (MST)Phoenix, az, United States of America (2072126): reduced air pressure: 10.07.2019 02:00:00 - 16.07.2019 02:00:00 (MST)Phoenix, az, United States of America (2072126): visibility: 10.07.2019 02:00:00 - 16.07.2019 02:00:00 (MST)Phoenix, az, United States of America (2072126): precipitation: 10.07.2019 02:00:00 - 16.07.2019 02:00:00 (MST)
Date & Time tt [°C] td [°C] ff [km/h] ff [kn] fx [km/h] fx [kn] dd ppp [hPa] vv [km] rr [mm]
16.07.2019 02:00:00 - - - - - - - - - -
16.07.2019 01:00:00 36,1 10,0 8 4 - - W 1004,6 16 -
16.07.2019 00:00:00 36,7 10,6 0 0 - - N 1004,7 16 -
15.07.2019 23:00:00 37,2 10,6 9 5 - - WSW 1004,7 16 -
15.07.2019 22:00:00 38,9 10,6 16 9 - - SW 1004,5 15 -
15.07.2019 21:00:00 39,4 10,6 15 8 - - SW 1004,1 16 -
15.07.2019 20:00:00 40,6 10,6 18 10 - - SW 1003,5 16 -
15.07.2019 19:00:00 42,2 10,6 24 13 - - SW 1003,0 16 -
15.07.2019 18:00:00 42,8 11,7 24 13 - - SW 1003,0 16 -
15.07.2019 17:00:00 43,3 11,7 22 12 - - WNW 1003,4 16 -
15.07.2019 16:00:00 42,8 12,8 21 11 - - W 1004,2 16 -
15.07.2019 15:00:00 43,3 11,7 24 13 - - SW 1005,0 16 -
15.07.2019 14:00:00 42,8 13,3 - - - - - 1006,2 16 -
15.07.2019 13:00:00 41,1 12,8 9 5 - - - 1007,2 16 -
15.07.2019 12:00:00 40,0 13,9 13 7 - - WSW 1008,1 16 -
15.07.2019 11:00:00 37,8 14,4 9 5 - - W 1008,8 16 -
15.07.2019 10:00:00 36,7 14,4 8 4 - - - 1009,1 16 -
15.07.2019 09:00:00 35,6 15,0 11 6 - - S 1009,4 16 -
15.07.2019 08:00:00 33,9 14,4 0 0 - - N 1009,7 16 -
15.07.2019 07:00:00 32,2 14,4 9 5 - - NNE 1009,5 16 -
15.07.2019 06:00:00 30,0 14,4 0 0 - - N 1009,3 16 -
15.07.2019 05:00:00 30,0 14,4 9 5 - - E 1008,8 16 -
15.07.2019 04:00:00 30,6 14,4 5 3 - - E 1008,5 16 -
15.07.2019 03:00:00 31,7 15,0 11 6 - - ENE 1008,5 16 -
15.07.2019 02:00:00 32,2 15,0 15 8 - - ESE 1008,7 16 -
15.07.2019 01:00:00 33,9 13,3 18 10 - - ESE 1009,0 16 -
15.07.2019 00:00:00 33,3 13,9 11 6 - - E 1009,0 16 -
14.07.2019 23:00:00 33,3 14,4 0 0 - - N 1008,9 16 -
14.07.2019 22:00:00 34,4 13,3 0 0 - - N 1008,1 16 -
14.07.2019 21:00:00 35,6 12,2 0 0 - - N 1007,6 16 -
14.07.2019 20:00:00 36,7 11,7 11 6 - - NNE 1007,0 16 -
14.07.2019 19:00:00 37,2 12,2 26 14 54 29 N 1007,0 16 -
14.07.2019 18:00:00 40,0 12,8 34 18 48 26 N 1006,9 13 -
14.07.2019 17:00:00 42,2 12,2 26 14 - - WSW 1006,6 16 -
14.07.2019 16:00:00 42,2 12,8 16 9 - - WSW 1007,2 16 -
14.07.2019 15:00:00 42,2 12,8 26 14 - - W 1007,8 16 -
14.07.2019 14:00:00 40,6 13,9 21 11 - - SW 1008,7 16 -
14.07.2019 13:00:00 39,4 13,9 18 10 - - WSW 1009,6 16 -
14.07.2019 12:00:00 38,9 15,6 21 11 - - SW 1010,4 16 -
14.07.2019 11:00:00 38,3 14,4 15 8 - - W 1010,9 16 -
14.07.2019 10:00:00 37,2 14,4 9 5 - - - 1011,2 16 -
14.07.2019 09:00:00 35,0 14,4 5 3 - - WNW 1011,5 16 -
14.07.2019 08:00:00 33,9 15,6 0 0 - - N 1011,5 16 -
14.07.2019 07:00:00 32,8 16,1 8 4 - - SSW 1011,0 16 -
14.07.2019 06:00:00 32,8 13,9 5 3 - - SE 1010,2 16 -
14.07.2019 05:00:00 32,8 13,3 5 3 - - W 1009,6 16 -
14.07.2019 04:00:00 33,3 13,3 0 0 - - N 1009,4 16 -
14.07.2019 03:00:00 33,3 13,3 5 3 - - N 1009,3 16 -
14.07.2019 02:00:00 33,9 13,3 0 0 - - N 1009,5 16 -
14.07.2019 01:00:00 34,4 13,3 13 7 - - SE 1009,9 16 -
14.07.2019 00:00:00 35,6 13,9 22 12 - - SE 1009,6 16 -
13.07.2019 23:00:00 36,7 13,9 15 8 - - S 1008,7 16 -
13.07.2019 22:00:00 37,8 11,7 9 5 - - SSW 1008,1 16 -
13.07.2019 21:00:00 37,8 11,1 13 7 - - SW 1006,9 16 -
13.07.2019 20:00:00 38,3 11,1 16 9 - - SW 1005,8 16 -
13.07.2019 19:00:00 39,4 11,1 26 14 - - SW 1005,1 16 -
13.07.2019 18:00:00 41,1 10,6 26 14 - - SW 1005,2 16 -
13.07.2019 17:00:00 41,7 10,6 24 13 - - WSW 1004,9 16 -
13.07.2019 16:00:00 41,7 11,1 18 10 - - WSW 1005,4 16 -
13.07.2019 15:00:00 41,7 11,1 21 11 - - SW 1006,0 16 -
13.07.2019 14:00:00 40,6 11,1 16 9 - - SW 1007,0 16 -
13.07.2019 13:00:00 39,4 12,2 11 6 - - - 1007,8 16 -
13.07.2019 12:00:00 38,9 11,1 13 7 - - SSW 1008,5 16 -
13.07.2019 11:00:00 38,3 10,6 11 6 - - - 1008,9 16 -
13.07.2019 10:00:00 37,2 9,4 13 7 - - SSW 1009,2 16 -
13.07.2019 09:00:00 35,6 8,9 15 8 - - SSW 1009,3 16 -
13.07.2019 08:00:00 35,6 10,6 8 4 - - - 1008,9 16 -
13.07.2019 07:00:00 33,9 11,1 13 7 - - NNW 1008,2 16 -
13.07.2019 06:00:00 31,1 11,1 9 5 - - NNW 1007,3 16 -
13.07.2019 05:00:00 31,7 9,4 5 3 - - N 1006,6 16 -
13.07.2019 04:00:00 32,8 9,4 0 0 - - N 1005,6 16 -
13.07.2019 03:00:00 34,4 10,0 11 6 - - NE 1004,9 16 -
13.07.2019 02:00:00 35,0 10,0 11 6 - - NNE 1005,7 16 0,0
13.07.2019 01:00:00 34,4 12,2 0 0 - - N 1005,9 16 0,0
13.07.2019 00:00:00 36,1 10,0 18 10 - - NE 1005,5 16 0,0
12.07.2019 23:00:00 37,2 10,0 11 6 - - - 1005,8 16 0,0
12.07.2019 22:00:00 36,7 10,0 0 0 - - N 1005,6 16 -
12.07.2019 21:00:00 36,7 10,0 18 10 - - NNE 1004,7 16 -
12.07.2019 20:00:00 37,2 10,0 26 14 - - N 1004,6 10 -
12.07.2019 19:00:00 38,3 10,0 18 10 70 38 N 1003,7 16 -
12.07.2019 18:00:00 41,1 6,1 13 7 - - WSW 1003,0 16 -
12.07.2019 17:00:00 41,7 7,2 18 10 - - W 1003,1 16 -
12.07.2019 16:00:00 42,2 7,8 0 0 - - N 1003,5 16 -
12.07.2019 15:00:00 41,7 8,3 9 5 - - W 1004,5 16 -
12.07.2019 14:00:00 41,1 8,9 15 8 - - SW 1005,4 16 -
12.07.2019 13:00:00 40,0 8,9 13 7 - - SW 1006,5 16 -
12.07.2019 12:00:00 39,4 9,4 8 4 - - - 1007,6 16 -
12.07.2019 11:00:00 38,3 10,0 9 5 - - WSW 1008,2 16 -
12.07.2019 10:00:00 38,3 10,0 0 0 - - N 1008,5 16 -
12.07.2019 09:00:00 36,1 8,3 8 4 - - N 1008,6 16 -
12.07.2019 08:00:00 34,4 8,3 0 0 - - N 1008,2 16 -
12.07.2019 07:00:00 33,3 7,2 13 7 - - N 1008,2 16 -
12.07.2019 06:00:00 32,8 7,2 5 3 - - E 1007,9 16 -
12.07.2019 05:00:00 32,8 7,8 9 5 - - ENE 1007,8 16 0,0
12.07.2019 04:00:00 33,9 6,7 5 3 - - SE 1007,3 16 -
12.07.2019 03:00:00 33,9 6,1 9 5 - - E 1007,0 16 -
12.07.2019 02:00:00 34,4 6,7 13 7 - - S 1007,1 16 -
12.07.2019 01:00:00 34,4 5,0 0 0 - - N 1006,6 16 -
12.07.2019 00:00:00 35,6 5,0 8 4 - - W 1006,4 16 -
11.07.2019 23:00:00 36,1 5,0 26 14 - - WSW 1006,7 16 -
11.07.2019 22:00:00 36,7 5,0 18 10 - - W 1006,7 16 -
11.07.2019 21:00:00 37,8 5,0 22 12 - - W 1006,1 16 -
11.07.2019 20:00:00 39,4 4,4 28 15 - - W 1005,9 16 -
11.07.2019 19:00:00 40,6 3,9 31 17 48 26 W 1005,6 16 -
11.07.2019 18:00:00 41,7 3,9 37 20 52 28 W 1005,5 16 -
11.07.2019 17:00:00 43,9 3,9 34 18 57 31 W 1005,5 16 -
11.07.2019 16:00:00 44,4 4,4 37 20 57 31 WSW 1005,7 16 -
11.07.2019 15:00:00 43,9 4,4 21 11 - - W 1006,4 16 -
11.07.2019 14:00:00 42,8 5,6 18 10 - - WSW 1007,4 16 -
11.07.2019 13:00:00 41,7 6,1 22 12 - - W 1008,4 16 -
11.07.2019 12:00:00 40,6 5,0 11 6 - - SSW 1010,2 16 -
11.07.2019 11:00:00 38,9 5,0 8 4 - - - 1010,5 16 -
11.07.2019 10:00:00 36,7 6,7 9 5 - - - 1010,8 16 -
11.07.2019 09:00:00 34,4 5,0 5 3 - - S 1010,7 16 -
11.07.2019 08:00:00 32,8 5,6 11 6 - - WSW 1010,4 15 -
11.07.2019 07:00:00 31,1 5,0 24 13 - - NNE 1009,6 16 -
11.07.2019 06:00:00 28,9 5,0 0 0 - - N 1009,9 16 -
11.07.2019 05:00:00 28,9 4,4 9 5 - - N 1009,6 16 -
11.07.2019 04:00:00 29,4 3,9 0 0 - - N 1009,0 16 -
11.07.2019 03:00:00 28,9 4,4 0 0 - - N 1008,6 16 -
11.07.2019 02:00:00 30,0 3,9 8 4 - - NNE 1008,5 16 -
11.07.2019 01:00:00 31,7 3,9 5 3 - - E 1008,8 16 -
11.07.2019 00:00:00 31,7 3,9 0 0 - - N 1008,9 16 -
10.07.2019 23:00:00 35,0 4,4 8 4 - - NW 1009,1 16 -
10.07.2019 22:00:00 36,7 3,9 9 5 - - WNW 1008,9 16 -
10.07.2019 21:00:00 37,8 3,9 11 6 - - W 1008,5 16 -
10.07.2019 20:00:00 39,4 4,4 16 9 - - W 1008,0 16 -
10.07.2019 19:00:00 41,1 4,4 21 11 - - SW 1007,9 16 -
10.07.2019 18:00:00 42,2 5,0 22 12 - - WSW 1007,9 16 -
10.07.2019 17:00:00 41,7 4,4 11 6 - - - 1008,3 16 -
10.07.2019 16:00:00 41,7 4,4 11 6 - - W 1009,0 16 -
10.07.2019 15:00:00 42,2 3,9 15 8 - - SSW 1009,8 16 -
10.07.2019 14:00:00 40,6 3,3 15 8 - - WSW 1010,8 16 -
10.07.2019 13:00:00 40,0 1,7 11 6 - - WSW 1011,7 16 -
10.07.2019 12:00:00 37,8 2,8 9 5 - - WSW 1012,5 16 -
10.07.2019 11:00:00 36,7 1,7 13 7 - - SW 1012,7 16 -
10.07.2019 10:00:00 34,4 1,7 0 0 - - N 1012,8 16 -
10.07.2019 09:00:00 32,8 3,3 0 0 - - N 1012,8 16 -
10.07.2019 08:00:00 31,1 1,1 0 0 - - N 1012,6 16 -
10.07.2019 07:00:00 28,9 1,1 5 3 - - NE 1012,1 16 -
10.07.2019 06:00:00 24,4 -1,1 0 0 - - N 1011,8 16 -
10.07.2019 05:00:00 25,6 -1,1 0 0 - - N 1011,2 16 -
10.07.2019 04:00:00 26,1 -2,2 5 3 - - NE 1010,7 16 -
10.07.2019 03:00:00 27,8 -2,2 0 0 - - N 1010,6 16 -
10.07.2019 02:00:00 28,9 -1,7 13 7 - - NNE 1010,6 16 -

tt = temperature
td = dewpoint
ff = wind speed
fx = gusts
dd = wind direction
ppp = reduced air pressure
vv = visibility
rr = precipitation

Next stations